Location: Umburanas
(4.5000°S, 37.9667°W)
Time: 13:41:28
(UTC+00:00)

Ariane Rocket - Pass Details

Date: 19 November 2019
Orbit: 759 x 771 km, 98.7° (Epoch: 10 December)

Event Time Altitude Azimuth Distance (km) Brightness Sun altitude
Rises 22:44:04 0° 183° (S) 3,246 6.6 -32.3°
Reaches altitude 10° 22:46:33 10° 192° (SSW) 2,316 5.9 -32.9°
Maximum altitude 22:51:10 35° 257° (WSW) 1,228 4.4 -33.9°
Enters shadow 22:52:01 33° 278° (W) 1,281 4.4 -34.1°
